Tracking 29892 objects as of 21-Nov-2024
HD Live streaming from Space Station
objects crossing your sky now

COSMOS 457

Track COSMOS 457 now!
10-day predictions
COSMOS 457 is classified as:


NORAD ID: 5614
Int'l Code: 1971-099A
Perigee: 1,189.4 km
Apogee: 1,224.3 km
Inclination: 74.0 °
Period: 109.4 minutes
Semi major axis: 7577 km
RCS: 3.3674 m2 (large)
Launch date: November 20, 1971
Source: Commonwealth of Independent States (former USSR) (CIS)
Launch site: PLESETSK MISSILE AND SPACE COMPLEX (PKMTR)
Your satellite tracking list
Your tracking list is empty




NASA's NSSDC Master Catalog

Two Line Element Set (TLE):
1 05614U 71099A   24325.48814451 -.00000298  00000-0 -73407-3 0  9998
2 05614  74.0324 149.5548 0023041 168.2966 231.5081 13.16095251546088
Source of the keplerian elements: AFSPC